| time (UTC) | temp F | wind direction | speed MPH | gust MPH | rain 1hr in | rain 24hr in | rain mn in | humidity % | barometer mb |
| 20260902164528 | 92 | 257 | 0.0 | 0.0 | 0.00 | 0.00 | 0.00 | 56 | 1018.2 |
| 20260902163027 | 93 | 282 | 0.0 | 0.0 | 0.00 | 0.00 | 0.00 | 54 | 1018.5 |
| 20260902161522 | 93 | 259 | 0.0 | 0.0 | 0.00 | 0.00 | 0.00 | 56 | 1018.7 |
| 20260902160018 | 93 | 336 | 0.0 | 0.0 | 0.00 | 0.00 | 0.00 | 54 | 1018.8 |
| 20260902154513 | 92 | 355 | 0.0 | 0.0 | 0.00 | 0.00 | 0.00 | 56 | 1018.8 |
| 20260902153009 | 91 | 300 | 0.0 | 0.0 | 0.00 | 0.00 | 0.00 | 57 | 1018.9 |
| 20260902151505 | 90 | 288 | 0.0 | 0.0 | 0.00 | 0.00 | 0.00 | 60 | 1019.0 |
| 20260902144557 | 88 | 315 | 0.0 | 0.0 | 0.00 | 0.00 | 0.00 | 62 | 1018.8 |
| 20260902143051 | 87 | 315 | 0.0 | 0.0 | 0.00 | 0.00 | 0.00 | 62 | 1018.9 |
| 20260902141546 | 85 | 96 | 0.0 | 0.0 | 0.00 | 0.00 | 0.00 | 53 | 1018.9 |
| 20260902140043 | 84 | 94 | 0.0 | 0.0 | 0.00 | 0.00 | 0.00 | 47 | 1019.0 |
| 20260902134539 | 81 | 94 | 0.0 | 0.0 | 0.00 | 0.00 | 0.00 | 33 | 1019.1 |
| 20260902133034 | 77 | 94 | 0.0 | 0.0 | 0.00 | 0.00 | 0.00 | 1 | 1019.2 |
| 20260902131530 | 76 | 94 | 0.0 | 0.0 | 0.00 | 0.00 | 0.00 | 1 | 1019.1 |
| 20260902130025 | 74 | 94 | 0.0 | 0.0 | 0.00 | 0.00 | 0.00 | 1 | 1019.1 |
| 20260902124524 | 73 | 94 | 0.0 | 0.0 | 0.00 | 0.00 | 0.00 | 1 | 1019.2 |
| 20260902123018 | 71 | 154 | 0.0 | 0.0 | 0.00 | 0.00 | 0.00 | 1 | 1019.1 |
| 20260902121511 | 70 | 154 | 0.0 | 0.0 | 0.00 | 0.00 | 0.00 | 1 | 1019.2 |
| 20260902120009 | 68 | 154 | 0.0 | 0.0 | 0.00 | 0.00 | 0.00 | 1 | 1018.9 |
| 20260902114506 | 68 | 154 | 0.0 | 0.0 | 0.00 | 0.00 | 0.00 | 1 | 1018.7 |
| 20260902113058 | 67 | 154 | 0.0 | 0.0 | 0.00 | 0.00 | 0.00 | 1 | 1018.5 |
| 20260902111558 | 68 | 154 | 0.0 | 0.0 | 0.00 | 0.00 | 0.00 | 1 | 1018.3 |
| 20260902110050 | 68 | 154 | 0.0 | 0.0 | 0.00 | 0.00 | 0.00 | 1 | 1018.2 |
| 20260902104549 | 68 | 154 | 0.0 | 0.0 | 0.00 | 0.00 | 0.00 | 1 | 1017.9 |
| 20260902103046 | 68 | 154 | 0.0 | 0.0 | 0.00 | 0.00 | 0.00 | 1 | 1017.9 |
| 20260902101544 | 68 | 154 | 0.0 | 0.0 | 0.00 | 0.00 | 0.00 | 1 | 1017.9 |
| 20260902100035 | 68 | 154 | 0.0 | 0.0 | 0.00 | 0.00 | 0.00 | 1 | 1017.8 |
| 20260902094530 | 68 | 154 | 0.0 | 0.0 | 0.00 | 0.00 | 0.00 | 1 | 1017.7 |
| 20260902093022 | 69 | 154 | 0.0 | 0.0 | 0.00 | 0.00 | 0.00 | 1 | 1017.7 |
| 20260902091519 | 69 | 154 | 0.0 | 0.0 | 0.00 | 0.00 | 0.00 | 1 | 1017.7 |
| 20260902090015 | 69 | 154 | 0.0 | 0.0 | 0.00 | 0.00 | 0.00 | 1 | 1017.5 |
| 20260902084510 | 69 | 154 | 0.0 | 0.0 | 0.00 | 0.00 | 0.00 | 1 | 1017.4 |
| 20260902083005 | 69 | 154 | 0.0 | 0.0 | 0.00 | 0.00 | 0.00 | 1 | 1017.3 |
| 20260902081501 | 69 | 154 | 0.0 | 0.0 | 0.00 | 0.00 | 0.00 | 1 | 1017.2 |
| 20260902080057 | 69 | 154 | 0.0 | 0.0 | 0.00 | 0.00 | 0.00 | 1 | 1017.3 |
| 20260902074556 | 69 | 154 | 0.0 | 0.0 | 0.00 | 0.00 | 0.00 | 1 | 1017.3 |
| 20260902073048 | 70 | 154 | 0.0 | 0.0 | 0.00 | 0.00 | 0.00 | 1 | 1017.2 |
| 20260902071551 | 70 | 154 | 0.0 | 0.0 | 0.00 | 0.00 | 0.00 | 1 | 1017.3 |
| 20260902070039 | 70 | 154 | 0.0 | 0.0 | 0.00 | 0.00 | 0.00 | 1 | 1017.3 |
| 20260902064537 | 70 | 154 | 0.0 | 0.0 | 0.00 | 0.00 | 0.00 | 1 | 1017.3 |
| 20260902063032 | 70 | 154 | 0.0 | 0.0 | 0.00 | 0.00 | 0.00 | 1 | 1017.3 |
| 20260902061540 | 70 | 154 | 0.0 | 0.0 | 0.00 | 0.00 | 0.00 | 1 | 1017.4 |
| 20260902060023 | 71 | 154 | 0.0 | 0.0 | 0.00 | 0.00 | 0.00 | 1 | 1017.3 |
| 20260902054518 | 71 | 154 | 0.0 | 0.0 | 0.00 | 0.00 | 0.00 | 1 | 1017.2 |
| 20260902053017 | 71 | 154 | 0.0 | 0.0 | 0.00 | 0.00 | 0.00 | 1 | 1017.3 |
| 20260902051510 | 71 | 154 | 0.0 | 0.0 | 0.00 | 0.00 | 0.00 | 1 | 1017.3 |
| 20260902050008 | 71 | 154 | 0.0 | 0.0 | 0.00 | 0.00 | 0.00 | 1 | 1017.3 |
| 20260902044502 | 72 | 154 | 0.0 | 0.0 | 0.00 | 0.00 | 0.00 | 1 | 1017.2 |
| 20260902043057 | 72 | 154 | 0.0 | 0.0 | 0.00 | 0.00 | 0.00 | 1 | 1017.2 |
| 20260902041552 | 72 | 154 | 0.0 | 0.0 | 0.00 | 0.00 | 0.00 | 1 | 1017.3 |
| 20260902040053 | 72 | 154 | 0.0 | 0.0 | 0.00 | 0.00 | 0.00 | 1 | 1017.3 |
| 20260902034554 | 72 | 212 | 0.0 | 0.0 | 0.00 | 0.00 | 0.00 | 1 | 1017.2 |
| 20260902033040 | 73 | 212 | 0.0 | 0.0 | 0.00 | 0.00 | 0.00 | 1 | 1017.3 |
| 20260902031539 | 73 | 212 | 0.0 | 0.0 | 0.00 | 0.00 | 0.00 | 1 | 1017.3 |
| 20260902030031 | 73 | 217 | 0.0 | 0.0 | 0.00 | 0.00 | 0.00 | 1 | 1017.3 |
| 20260902024526 | 73 | 217 | 0.0 | 0.0 | 0.00 | 0.00 | 0.00 | 1 | 1017.4 |
| 20260902023022 | 74 | 217 | 0.0 | 0.0 | 0.00 | 0.00 | 0.00 | 1 | 1017.2 |
| 20260902021517 | 74 | 217 | 0.0 | 0.0 | 0.00 | 0.00 | 0.00 | 1 | 1017.0 |
| 20260902020020 | 75 | 227 | 0.0 | 0.0 | 0.00 | 0.00 | 0.00 | 1 | 1017.0 |
| 20260902014511 | 75 | 256 | 0.0 | 0.0 | 0.00 | 0.00 | 0.00 | 1 | 1016.9 |
| 20260902013005 | 76 | 256 | 0.0 | 0.0 | 0.00 | 0.00 | 0.00 | 6 | 1016.8 |
| 20260902011600 | 77 | 256 | 0.0 | 0.0 | 0.00 | 0.00 | 0.00 | 18 | 1016.7 |
| 20260902010056 | 78 | 256 | 0.0 | 0.0 | 0.00 | 0.00 | 0.00 | 28 | 1016.5 |
| 20260902004554 | 80 | 256 | 0.0 | 0.0 | 0.00 | 0.00 | 0.00 | 37 | 1016.3 |
| 20260902003047 | 81 | 256 | 0.0 | 0.0 | 0.00 | 0.00 | 0.00 | 49 | 1016.1 |
| 20260902001542 | 83 | 256 | 0.0 | 0.0 | 0.00 | 0.00 | 0.00 | 60 | 1016.1 |
| 20260902000038 | 85 | 308 | 0.0 | 0.0 | 0.00 | 0.00 | 0.00 | 64 | 1016.0 |
| 20260901234533 | 88 | 308 | 0.0 | 0.0 | 0.00 | 0.00 | 0.00 | 65 | 1016.0 |
| 20260901233029 | 91 | 307 | 0.0 | 0.0 | 0.00 | 0.00 | 0.00 | 60 | 1016.1 |
| 20260901231504 | 94 | 270 | 0.0 | 0.0 | 0.00 | 0.00 | 0.00 | 56 | 1016.1 |
| 20260901230057 | 95 | 270 | 0.0 | 0.0 | 0.00 | 0.00 | 0.00 | 57 | 1016.1 |
| 20260901224553 | 95 | 270 | 0.0 | 0.0 | 0.00 | 0.00 | 0.00 | 49 | 1016.2 |
| 20260901223050 | 95 | 270 | 0.0 | 0.0 | 0.00 | 0.00 | 0.00 | 47 | 1016.2 |
| 20260901221543 | 96 | 250 | 0.0 | 0.0 | 0.00 | 0.00 | 0.00 | 45 | 1016.2 |
| 20260901220039 | 96 | 300 | 0.0 | 0.0 | 0.00 | 0.00 | 0.00 | 47 | 1016.2 |
| 20260901214538 | 95 | 161 | 0.0 | 0.0 | 0.00 | 0.00 | 0.00 | 47 | 1016.2 |
| 20260901213044 | 96 | 181 | 0.0 | 0.0 | 0.00 | 0.00 | 0.00 | 46 | 1016.2 |
| 20260901211526 | 97 | 179 | 0.0 | 0.0 | 0.00 | 0.00 | 0.00 | 45 | 1016.3 |
| 20260901210021 | 96 | 264 | 0.0 | 0.0 | 0.00 | 0.00 | 0.00 | 44 | 1016.4 |
| 20260901204517 | 97 | 263 | 0.0 | 0.0 | 0.00 | 0.00 | 0.00 | 44 | 1016.5 |
| 20260901203013 | 97 | 231 | 0.0 | 0.0 | 0.00 | 0.00 | 0.00 | 45 | 1016.7 |
| 20260901201508 | 96 | 322 | 0.0 | 0.0 | 0.00 | 0.00 | 0.00 | 46 | 1016.7 |
| 20260901200004 | 96 | 286 | 0.0 | 0.0 | 0.00 | 0.00 | 0.00 | 46 | 1016.9 |
| 20260901194600 | 95 | 337 | 0.0 | 0.0 | 0.00 | 0.00 | 0.00 | 45 | 1017.0 |
| 20260901194522 | 95 | 348 | 0.0 | 0.0 | 0.00 | 0.00 | 0.00 | 46 | 1017.0 |
| 20260901193102 | 93 | 262 | 0.0 | 0.0 | 0.00 | 0.00 | 0.00 | 47 | 1017.2 |
| 20260901193028 | 93 | 332 | 0.0 | 0.0 | 0.00 | 0.00 | 0.00 | 47 | 1017.2 |
| 20260901191549 | 95 | 59 | 0.0 | 0.0 | 0.00 | 0.00 | 0.00 | 48 | 1017.4 |
| 20260901190050 | 96 | 275 | 0.0 | 0.0 | 0.00 | 0.00 | 0.00 | 46 | 1017.6 |
| 20260901184547 | 95 | 298 | 0.0 | 0.0 | 0.00 | 0.00 | 0.00 | 48 | 1017.7 |
| 20260901181534 | 93 | 250 | 0.0 | 0.0 | 0.00 | 0.00 | 0.00 | 51 | 1017.9 |
| 20260901180026 | 94 | 304 | 0.0 | 0.0 | 0.00 | 0.00 | 0.00 | 49 | 1018.0 |
| 20260901174522 | 93 | 290 | 0.0 | 0.0 | 0.00 | 0.00 | 0.00 | 52 | 1018.1 |
| 20260901173018 | 93 | 290 | 0.0 | 0.0 | 0.00 | 0.00 | 0.00 | 52 | 1018.3 |
| 20260901171513 | 91 | 292 | 0.0 | 0.0 | 0.00 | 0.00 | 0.00 | 53 | 1018.5 |
| 20260901170012 | 91 | 279 | 0.0 | 0.0 | 0.00 | 0.00 | 0.00 | 55 | 1018.5 |